Wind_Speed
85 91 93 97 96 95 90 88 84 81 76 70 72 79 90 102 110 112 110 105 103 101 100 100 100 96 92 88 83 76 74 74 67 63 58 53 53 50 50 48 47 42 39 42 43
87 90 90 87 82 78 71 68 68 68 66 65 67 70 75 93 105 109 113 110 105 108 102 100 101 99 95 91 86 81 77 77 70 66 63 58 56 54 51 52 47 44 43 45 46
85 87 81 73 66 64 60 57 57 58 58 59 61 66 73 83 96 110 111 113 114 111 107 104 99 97 95 93 88 84 81 78 73 70 66 61 60 58 55 51 49 48 48 49 49
89 85 73 61 60 57 53 47 44 47 49 55 58 63 67 79 89 107 112 115 116 111 108 106 100 95 93 92 90 86 84 80 75 72 66 64 62 61 55 51 51 49 48 46 43
92 84 71 60 52 47 43 41 36 38 40 44 52 58 65 76 86 98 109 115 117 115 114 105 101 97 94 91 88 86 85 82 76 71 67 64 65 63 61 56 53 49 46 44 39
95 84 70 59 47 41 38 36 31 31 31 34 44 54 64 73 84 90 103 114 119 116 111 109 105 101 96 93 89 86 85 82 77 70 69 69 65 63 62 58 54 50 50 46 44
96 84 71 60 45 40 34 28 25 25 25 28 38 48 58 65 72 85 98 111 119 113 108 108 107 101 98 94 90 88 85 81 78 72 73 72 66 62 61 59 55 54 50 48 48
101 89 75 59 46 40 34 23 18 18 19 23 33 42 53 58 66 76 90 105 113 111 116 111 107 104 101 94 89 88 83 79 75 73 74 72 68 64 61 58 55 54 51 50 52
99 89 76 63 52 40 33 23 17 12 13 19 29 37 49 54 60 68 83 94 102 113 114 111 105 103 100 94 87 84 79 74 72 72 72 70 67 64 61 59 57 54 54 53 50
95 88 74 65 55 45 32 25 20 13 9 17 25 35 40 49 58 70 78 89 96 109 114 113 108 102 100 93 84 80 77 73 69 68 68 67 65 62 60 57 56 55 55 51 54
92 88 78 63 54 46 33 22 18 16 6 12 20 30 41 43 55 70 77 87 100 108 112 111 107 99 97 93 90 85 79 72 69 66 66 65 64 61 59 58 58 58 56 57 59
88 85 77 66 57 48 37 25 18 11 5 7 16 27 38 40 47 63 76 86 95 104 111 110 105 103 102 100 94 87 82 74 69 65 63 62 61 58 57 58 54 51 52 53 52
85 82 76 65 56 51 42 29 22 14 11 6 12 22 30 38 43 56 72 81 91 99 102 100 100 101 103 101 95 87 80 74 70 66 62 61 58 57 55 52 48 49 47 51 53
81 80 81 67 57 51 46 36 27 18 17 8 10 19 26 32 38 47 63 73 81 88 94 98 102 101 100 100 93 85 81 76 72 67 63 61 56 55 51 49 48 46 49 52 54
77 77 82 75 60 50 45 39 29 22 20 10 9 14 21 29 35 44 57 69 74 82 89 95 98 99 98 94 91 86 83 79 76 69 65 61 57 53 49 48 47 49 49 52 47
72 75 75 77 69 55 46 41 32 25 18 12 13 11 18 24 33 39 50 60 63 72 82 91 95 96 94 93 90 89 86 80 75 73 68 62 57 56 53 52 51 49 50 48 49
67 73 69 75 75 64 53 43 35 27 21 14 16 14 16 23 26 34 43 50 54 58 73 86 92 95 92 91 90 90 88 84 79 73 67 63 61 59 56 54 54 52 52 52 52
61 68 67 70 74 70 58 45 41 32 24 16 11 17 17 20 26 33 38 46 52 59 70 78 85 89 90 88 86 87 87 85 76 68 67 67 63 60 59 57 57 56 57 56 56
54 61 67 63 70 69 68 56 44 37 29 25 13 11 19 22 22 30 37 43 48 57 66 77 82 86 87 88 88 88 85 82 76 72 72 69 66 64 61 59 59 59 60 60 60
47 55 61 63 61 65 67 71 56 44 36 31 27 16 9 15 24 27 31 36 41 48 59 71 79 83 87 87 87 85 82 79 77 75 71 68 66 64 62 61 61 61 62 62 61
40 48 55 62 57 57 65 66 68 60 47 38 31 27 18 12 13 18 31 38 41 46 51 58 71 78 82 83 83 81 78 77 76 75 72 69 66 66 65 63 62 63 62 61 62
33 39 48 52 60 56 56 61 64 65 64 51 36 31 26 21 17 17 16 20 27 35 45 54 65 72 77 79 80 79 77 74 73 73 73 70 69 67 66 65 65 64 63 62 62
27 32 39 47 51 58 57 53 58 61 61 63 57 42 36 31 25 21 21 16 15 24 31 39 52 65 72 76 77 76 76 74 72 72 71 70 68 67 65 64 62 62 62 61 62
21 26 31 39 45 50 55 57 49 54 58 60 60 62 52 42 38 32 27 23 17 17 25 31 40 52 63 71 72 73 72 72 72 71 68 68 67 66 65 63 60 60 62 65 64
16 20 24 30 37 42 47 51 58 50 49 53 56 57 57 59 57 44 34 28 24 19 22 27 33 39 46 55 60 62 64 65 66 67 65 66 65 65 64 60 58 61 66 64 61
14 16 18 22 27 33 39 42 48 50 56 46 48 51 54 56 54 54 56 50 40 35 30 27 27 31 36 44 47 50 51 54 57 59 60 59 60 59 58 56 57 60 59 59 61
9 12 14 17 19 24 29 35 38 41 46 49 52 46 45 47 49 51 53 52 52 50 43 36 32 29 28 30 31 32 34 37 40 40 42 46 45 48 46 46 52 52 44 37 38
Wind_Direction
297 296 298 294 291 287 284 279 275 271 267 259 250 242 236 232 231 232 233 233 231 230 230 230 231 230 230 231 231 231 232 233 233 235 236 235 237 235 238 240 245 251 255 255 259
303 304 302 298 294 290 284 276 271 267 263 256 246 240 233 228 226 225 227 229 226 227 227 228 228 230 230 230 230 230 230 232 232 232 235 236 237 233 236 238 243 247 251 254 260
313 315 311 306 299 294 289 281 273 265 257 250 242 234 227 224 221 220 220 223 225 225 225 226 227 228 229 229 230 229 230 231 230 231 234 235 236 239 236 237 240 243 246 253 260
325 325 322 315 305 301 295 288 277 265 254 243 235 230 223 221 216 216 215 218 222 221 222 226 227 227 228 230 229 229 229 230 229 229 232 235 238 238 240 239 241 245 249 254 259
334 334 332 327 314 307 303 295 281 267 253 239 229 224 220 217 213 212 212 215 219 220 218 222 225 227 227 228 228 228 229 229 228 228 229 233 236 237 239 241 245 250 254 256 255
341 342 340 334 328 318 313 303 289 271 256 240 226 218 217 216 214 211 210 211 215 217 218 219 222 224 225 226 227 227 227 228 228 227 227 231 234 236 239 242 245 248 252 254 256
347 348 346 342 340 330 319 313 298 278 261 241 223 218 216 217 213 207 207 210 213 213 216 216 219 222 225 225 225 226 226 226 226 226 228 231 234 237 240 243 247 250 254 259 260
350 350 350 350 348 340 329 320 310 289 269 242 223 214 212 212 210 207 206 208 210 210 214 214 215 218 222 225 224 227 227 227 226 225 228 230 233 236 240 243 247 250 253 252 258
352 354 353 356 357 350 342 337 335 313 271 241 218 212 209 206 204 203 202 206 207 208 212 214 215 216 220 223 223 226 229 229 227 226 228 230 233 236 240 241 243 245 247 251 255
355 356 358 358 360 356 351 355 350 334 273 234 213 201 206 205 199 199 199 201 203 207 209 211 213 213 218 222 224 225 227 229 228 227 227 229 231 233 235 237 242 244 248 252 250
358 359 360 3 5 2 358 3 10 343 294 225 204 200 193 198 200 197 196 198 201 204 206 209 210 211 213 218 222 221 221 223 227 228 228 228 229 229 232 235 238 244 249 248 250
0 2 4 4 8 11 8 7 21 17 2 203 191 192 186 193 197 199 196 198 203 204 206 206 206 208 209 214 219 221 221 218 222 226 227 227 229 230 231 235 241 245 247 249 252
2 5 7 9 9 12 14 17 23 40 58 125 170 182 187 189 191 198 196 200 201 203 205 204 206 208 209 212 216 219 219 219 221 224 227 228 230 231 232 237 239 241 245 248 251
5 9 12 13 14 13 14 18 26 40 61 82 150 171 178 187 188 192 198 200 204 202 201 202 204 206 210 212 214 217 219 219 219 222 226 229 230 233 235 236 238 243 240 245 249
8 11 15 16 17 17 17 20 24 34 43 57 113 158 173 178 181 190 192 198 200 200 200 200 204 207 209 211 212 214 219 219 219 222 225 230 232 235 237 239 238 240 247 251 252
10 13 17 17 19 21 21 22 26 40 49 57 95 124 159 174 178 184 190 196 200 202 197 200 202 207 209 210 210 215 219 223 223 221 224 228 232 236 239 241 243 246 251 253 257
12 14 19 20 22 22 23 24 32 39 48 63 97 110 144 156 166 178 184 191 194 198 199 200 201 205 208 210 210 214 218 223 225 225 225 229 232 236 241 245 248 252 256 258 262
14 17 19 26 26 27 27 29 34 42 45 51 90 117 130 150 162 164 178 185 190 191 195 201 203 205 206 208 213 216 218 222 225 227 229 232 235 240 243 246 249 254 259 264 268
15 19 19 27 30 31 34 36 37 41 57 55 71 122 134 142 155 167 174 183 189 193 197 199 201 203 206 208 211 215 217 221 223 223 226 231 234 236 240 245 251 255 259 264 269
15 20 22 26 32 34 37 41 43 43 56 66 67 76 135 149 156 164 176 185 192 197 199 199 201 202 204 208 211 215 216 219 221 224 228 231 235 239 244 249 254 258 261 265 271
18 21 25 27 31 35 41 43 45 49 49 57 71 77 89 136 167 174 178 182 190 193 198 201 203 204 205 207 212 216 217 219 221 224 228 232 236 241 245 251 256 260 264 269 272
22 21 26 29 32 34 37 42 47 50 51 53 62 73 85 99 122 168 172 188 192 195 198 197 200 204 204 208 211 214 218 221 223 226 229 233 237 242 248 254 258 261 265 270 273
26 26 26 29 35 37 37 41 47 51 54 57 59 65 73 81 92 115 144 146 169 191 194 197 199 202 204 206 210 214 218 221 224 227 231 235 240 245 250 255 259 263 266 271 275
28 29 28 30 33 41 40 44 47 50 54 58 61 65 68 74 82 89 99 111 120 154 174 186 195 198 201 204 208 214 218 221 225 229 233 237 242 248 253 256 261 265 268 272 276
25 32 32 32 36 39 45 45 48 51 53 56 62 65 70 73 74 79 86 93 100 121 149 161 174 185 193 202 205 210 216 221 225 230 235 240 245 249 254 258 261 266 267 272 278
12 30 38 36 38 40 44 49 51 50 53 57 59 62 65 67 70 77 79 82 89 100 112 121 145 165 181 190 199 207 214 220 227 233 238 243 247 251 256 262 265 265 270 274 278
17 24 33 42 43 41 43 50 51 54 55 55 61 63 65 68 71 72 74 78 83 88 93 103 114 130 151 167 179 192 203 212 221 228 234 239 245 249 255 260 262 267 270 270 271
Height
10615 10596 10575 10552 10529 10508 10497 10484 10476 10472 10474 10480 10487 10498 10514 10534 10549 10572 10601 10625 10644 10653 10663 10676 10688 10701 10717 10729 10745 10760 10770 10777 10793 10802 10806 10813 10816 10822 10825 10829 10833 10839 10843 10843 10845
10593 10571 10543 10518 10496 10479 10468 10458 10452 10449 10449 10454 10461 10472 10484 10500 10520 10547 10573 10595 10619 10628 10643 10657 10669 10686 10701 10716 10731 10745 10757 10764 10782 10791 10797 10804 10808 10814 10816 10821 10827 10832 10835 10836 10838
10571 10541 10512 10486 10467 10452 10440 10433 10428 10425 10427 10430 10438 10446 10457 10471 10494 10518 10546 10569 10586 10603 10627 10638 10654 10672 10686 10703 10718 10733 10743 10754 10770 10780 10788 10795 10801 10803 10810 10815 10820 10826 10827 10829 10831
10547 10513 10485 10462 10442 10430 10417 10410 10407 10403 10405 10408 10416 10424 10438 10450 10468 10490 10519 10543 10559 10585 10609 10623 10643 10660 10678 10690 10705 10720 10731 10743 10758 10769 10780 10786 10791 10796 10802 10806 10810 10817 10820 10822 10824
10527 10493 10466 10445 10427 10412 10402 10394 10390 10385 10386 10391 10398 10408 10419 10429 10447 10469 10497 10518 10541 10561 10586 10610 10629 10645 10663 10676 10693 10706 10719 10732 10746 10760 10771 10777 10780 10786 10792 10799 10804 10810 10813 10815 10817
10514 10480 10454 10432 10414 10401 10390 10381 10377 10372 10373 10378 10384 10394 10401 10413 10427 10454 10479 10497 10517 10539 10568 10595 10610 10626 10645 10661 10678 10691 10705 10720 10736 10750 10759 10765 10770 10777 10784 10791 10797 10802 10805 10808 10810
10501 10470 10446 10423 10405 10393 10382 10372 10368 10365 10365 10368 10374 10382 10391 10404 10424 10442 10460 10478 10497 10529 10555 10573 10594 10615 10633 10649 10665 10677 10693 10710 10725 10740 10747 10754 10764 10771 10777 10784 10791 10794 10797 10799 10801
10494 10463 10439 10419 10402 10388 10378 10368 10363 10360 10358 10361 10366 10373 10383 10396 10414 10432 10450 10465 10489 10521 10531 10553 10578 10603 10616 10640 10656 10668 10684 10701 10717 10731 10735 10746 10755 10763 10769 10777 10783 10787 10788 10790 10792
10494 10466 10439 10417 10399 10387 10377 10366 10360 10358 10356 10357 10361 10368 10377 10390 10406 10424 10439 10458 10483 10498 10521 10543 10569 10593 10612 10631 10648 10662 10682 10697 10709 10721 10727 10738 10747 10755 10762 10768 10773 10777 10779 10782 10785
10495 10467 10443 10419 10402 10389 10377 10367 10360 10357 10355 10355 10359 10364 10375 10387 10400 10411 10430 10448 10468 10486 10504 10530 10558 10586 10606 10625 10646 10660 10675 10687 10699 10708 10719 10729 10738 10745 10752 10758 10763 10767 10771 10776 10777
10499 10472 10446 10425 10409 10394 10381 10371 10363 10359 10357 10357 10358 10364 10371 10383 10395 10405 10421 10437 10448 10469 10493 10521 10551 10583 10606 10618 10628 10644 10660 10674 10686 10698 10709 10718 10727 10736 10743 10748 10753 10759 10764 10767 10768
10506 10480 10452 10429 10413 10398 10386 10376 10368 10363 10361 10360 10360 10365 10370 10383 10393 10403 10417 10429 10444 10462 10482 10513 10545 10568 10584 10598 10614 10633 10649 10664 10676 10687 10699 10709 10716 10726 10733 10739 10747 10752 10754 10758 10759
10511 10486 10461 10437 10419 10404 10393 10384 10375 10369 10365 10364 10364 10368 10375 10382 10391 10402 10415 10424 10436 10456 10482 10515 10538 10557 10571 10588 10607 10627 10644 10659 10670 10679 10691 10700 10710 10719 10725 10734 10740 10742 10747 10748 10749
10518 10493 10468 10445 10427 10410 10397 10388 10381 10374 10371 10369 10370 10371 10376 10383 10391 10403 10416 10428 10440 10460 10482 10507 10524 10544 10563 10583 10606 10624 10635 10648 10659 10671 10683 10693 10704 10711 10720 10726 10731 10735 10737 10739 10741
10524 10501 10477 10456 10436 10421 10405 10394 10387 10383 10379 10378 10376 10377 10380 10386 10393 10401 10413 10424 10440 10458 10483 10502 10523 10541 10559 10582 10603 10616 10625 10636 10651 10666 10675 10686 10696 10705 10711 10717 10722 10727 10730 10732 10733
10532 10511 10492 10470 10447 10429 10415 10402 10394 10389 10387 10385 10382 10384 10388 10391 10397 10405 10415 10427 10444 10460 10482 10498 10518 10534 10557 10576 10596 10606 10616 10630 10644 10655 10667 10680 10690 10695 10702 10707 10713 10718 10722 10724 10725
10540 10522 10502 10483 10459 10438 10423 10412 10403 10396 10394 10394 10391 10392 10395 10396 10402 10411 10420 10433 10450 10468 10482 10493 10511 10527 10551 10569 10585 10597 10608 10621 10634 10649 10667 10675 10682 10688 10694 10700 10704 10709 10712 10715 10717
10547 10530 10514 10495 10475 10456 10438 10424 10410 10405 10401 10402 10401 10400 10402 10405 10409 10416 10424 10436 10449 10461 10473 10493 10509 10525 10545 10564 10582 10592 10602 10616 10635 10652 10662 10666 10677 10683 10688 10692 10696 10698 10702 10706 10709
10554 10540 10525 10505 10490 10475 10456 10434 10423 10415 10409 10408 10409 10409 10409 10412 10418 10424 10431 10438 10449 10459 10471 10485 10502 10521 10540 10556 10568 10580 10595 10613 10629 10639 10644 10656 10667 10671 10678 10683 10687 10691 10695 10698 10701
10560 10548 10534 10516 10503 10490 10472 10453 10439 10428 10421 10417 10417 10418 10420 10422 10424 10429 10437 10445 10453 10463 10473 10482 10497 10514 10532 10547 10560 10575 10590 10607 10620 10630 10641 10651 10659 10666 10670 10675 10678 10683 10687 10690 10693
10566 10555 10543 10529 10514 10503 10486 10472 10458 10445 10435 10429 10425 10424 10424 10428 10433 10436 10435 10440 10449 10457 10470 10485 10499 10513 10527 10544 10558 10571 10589 10603 10614 10624 10635 10645 10653 10658 10663 10668 10672 10676 10680 10683 10682
10569 10561 10551 10541 10527 10512 10500 10489 10477 10463 10452 10444 10438 10433 10432 10433 10434 10438 10445 10450 10455 10459 10466 10477 10490 10508 10525 10539 10552 10568 10584 10597 10609 10620 10629 10638 10646 10652 10658 10662 10664 10669 10673 10672 10672
10574 10567 10558 10549 10538 10525 10514 10504 10493 10481 10470 10461 10452 10446 10444 10442 10442 10444 10448 10454 10460 10464 10471 10480 10490 10502 10517 10532 10548 10563 10577 10591 10603 10612 10622 10632 10641 10646 10649 10653 10658 10661 10662 10663 10662
10577 10571 10564 10556 10547 10538 10528 10518 10507 10498 10488 10477 10470 10462 10458 10456 10454 10455 10456 10458 10461 10466 10472 10479 10490 10501 10514 10530 10547 10562 10574 10587 10599 10609 10620 10627 10634 10640 10641 10645 10651 10654 10654 10653 10651
10579 10574 10569 10563 10556 10549 10540 10531 10522 10512 10505 10497 10489 10483 10475 10471 10469 10466 10465 10465 10467 10471 10476 10482 10492 10503 10517 10533 10546 10558 10571 10584 10596 10605 10615 10623 10629 10633 10634 10640 10646 10646 10642 10642 10642
10582 10577 10572 10568 10563 10557 10551 10544 10536 10528 10520 10513 10506 10499 10492 10488 10485 10481 10479 10479 10478 10479 10485 10490 10499 10510 10522 10535 10549 10562 10575 10586 10597 10606 10614 10619 10623 10627 10629 10634 10636 10632 10633 10633 10631
10582 10579 10576 10572 10568 10563 10559 10554 10548 10542 10536 10529 10522 10515 10511 10507 10504 10500 10496 10494 10493 10494 10497 10503 10510 10519 10529 10541 10554 10565 10577 10586 10594 10602 10608 10612 10617 10618 10622 10624 10623 10624 10623 10623 10622